Home > Weather > Alpena > Past weeks

Flag for USA Past Weather in Alpena, Michigan, USA — Yesterday and Last 2 Weeks

Now
65 °F

Sunny.


Feels Like: 65 °F
Forecast: 48 / 80 °F
Wind: 5 mph from Southwest

Location: Alpena County Regional Airport

Current Time: Jun 30, 2016 at 10:16:18 AM

Latest Report: Jun 30, 2016 at 8:54 AM


Visibility: 10 mi

Pressure: 30.01 "Hg

Humidity: 49%

Dew Point: 45 °F

Location of AlpenaLocation

Past Weather in Alpena — Graph

°F

Alpena Temperature Yesterday

Maximum temperature yesterday: 80 °F (at 3:54 PM)
Minimum temperature yesterday: 46 °F (at 4:54 AM)
Average temperature yesterday: 63 °F

High & Low Weather Summary for the Past Weeks

 TemperatureHumidityPressure
High91 °F (Jun 19, 3:54 PM)96% (Jun 15, 9:54 PM)30.22 "Hg (Jun 15, 9:54 PM)
Low41 °F (Jun 30, 5:54 AM)20% (Jun 29, 2:54 PM)29.76 "Hg (Jun 16, 3:54 AM)
Average68 °F57%29.99 "Hg
* Reported Jun 15 8:54 AM — Jun 30 8:54 AM, Alpena, Weather by CustomWeather, © 2016

Note: Actual official high and low records may vary slightly from our data, if they occured in-between our weather recording intervals... More about our weather records

Advertising

Alpena Weather History for the Previous 24 Hours

Scroll right to see more
 ConditionsComfort  
Time TempWeatherWind HumidityBarometerVisibility
8:54 AM
Thu, Jun 30
65 °FSunny.5 mph49%30.01 "Hg10 mi
7:54 AM58 °FOvercast.6 mph60%30.02 "Hg10 mi
6:54 AM47 °FSunny.No wind83%30.02 "Hg10 mi
5:54 AM41 °FClear.No wind86%30.02 "Hg10 mi
4:54 AM42 °FClear.No wind85%30.01 "Hg10 mi
3:54 AM44 °FClear.No wind82%30.01 "Hg10 mi
2:54 AM45 °FClear.No wind86%30.01 "Hg10 mi
1:54 AM47 °FClear.No wind86%30.02 "Hg10 mi
12:54 AM50 °FClear.No wind83%30.03 "Hg10 mi
11:54 PM
Wed, Jun 29
53 °FClear.No wind77%30.03 "Hg10 mi
10:54 PM55 °FClear.No wind69%30.04 "Hg10 mi
9:54 PM60 °FSunny.No wind52%30.02 "Hg10 mi
8:54 PM67 °FSunny.3 mph36%30.02 "Hg10 mi
7:54 PM71 °FSunny.7 mph28%30.02 "Hg10 mi
6:54 PM73 °FSunny.9 mph29%30.02 "Hg10 mi
5:54 PM77 °FSunny.10 mph26%30.02 "Hg10 mi
4:54 PM78 °FSunny.9 mph25%30.03 "Hg10 mi
3:54 PM80 °FSunny.3 mph21%30.03 "Hg10 mi
2:54 PM79 °FSunny.6 mph20%30.04 "Hg10 mi
1:54 PM77 °FSunny.N/A21%30.06 "Hg10 mi
12:54 PM77 °FSunny.8 mph22%30.07 "Hg10 mi
11:54 AM75 °FSunny.8 mph26%30.09 "Hg10 mi
10:54 AM72 °FSunny.6 mph37%30.09 "Hg10 mi
Weather by CustomWeather, © 2016

See weather overviewHow to use our weather pages